| time (UTC) | temp F | wind direction | speed MPH | gust MPH | rain 1hr in | rain 24hr in | rain mn in | humidity % | barometer mb |
| 20260504234525 | 64 | 169 | 3.0 | 6.0 | 0.00 | 0.05 | 0.04 | 57 | 1002.4 |
| 20260504233025 | 65 | 196 | 4.0 | 10.0 | 0.00 | 0.05 | 0.04 | 54 | 1002.2 |
| 20260504231524 | 65 | 222 | 5.0 | 9.0 | 0.00 | 0.05 | 0.04 | 54 | 1002.4 |
| 20260504230023 | 66 | 214 | 4.0 | 11.0 | 0.00 | 0.05 | 0.04 | 53 | 1002.5 |
| 20260504224521 | 66 | 249 | 6.0 | 12.0 | 0.00 | 0.05 | 0.04 | 51 | 1002.4 |
| 20260504223021 | 67 | 232 | 5.0 | 16.0 | 0.00 | 0.05 | 0.04 | 50 | 1002.6 |
| 20260504221520 | 68 | 231 | 9.0 | 14.0 | 0.00 | 0.05 | 0.04 | 48 | 1002.7 |
| 20260504220019 | 68 | 231 | 11.0 | 21.0 | 0.00 | 0.05 | 0.04 | 48 | 1002.7 |
| 20260504214519 | 69 | 215 | 10.0 | 22.0 | 0.00 | 0.05 | 0.04 | 48 | 1002.8 |
| 20260504213017 | 69 | 257 | 13.0 | 21.0 | 0.00 | 0.05 | 0.04 | 49 | 1002.8 |
| 20260504211518 | 69 | 207 | 10.0 | 21.0 | 0.00 | 0.05 | 0.04 | 50 | 1002.9 |
| 20260504210021 | 68 | 226 | 11.0 | 19.0 | 0.00 | 0.05 | 0.04 | 49 | 1002.9 |
| 20260504204512 | 68 | 248 | 13.0 | 22.0 | 0.00 | 0.05 | 0.04 | 49 | 1003.3 |
| 20260504203010 | 68 | 229 | 14.0 | 21.0 | 0.00 | 0.05 | 0.04 | 50 | 1003.2 |
| 20260504201508 | 67 | 216 | 9.0 | 27.0 | 0.00 | 0.05 | 0.04 | 50 | 1003.4 |
| 20260504200009 | 66 | 247 | 16.0 | 26.0 | 0.00 | 0.05 | 0.04 | 50 | 1003.5 |
| 20260504194504 | 66 | 241 | 14.0 | 23.0 | 0.00 | 0.05 | 0.04 | 50 | 1003.7 |
| 20260504193002 | 66 | 259 | 13.0 | 25.0 | 0.00 | 0.05 | 0.04 | 51 | 1003.9 |
| 20260504191608 | 66 | 264 | 14.0 | 20.0 | 0.00 | 0.05 | 0.04 | 50 | 1003.9 |
| 20260504190121 | 66 | 224 | 10.0 | 20.0 | 0.00 | 0.05 | 0.04 | 52 | 1004.2 |
| 20260504184555 | 65 | 253 | 13.0 | 26.0 | 0.00 | 0.05 | 0.04 | 51 | 1004.3 |
| 20260504183152 | 64 | 238 | 17.0 | 30.0 | 0.00 | 0.05 | 0.04 | 52 | 1004.4 |
| 20260504181555 | 64 | 234 | 14.0 | 21.0 | 0.00 | 0.05 | 0.04 | 52 | 1004.4 |
| 20260504180048 | 63 | 241 | 16.0 | 26.0 | 0.00 | 0.05 | 0.04 | 53 | 1004.7 |
| 20260504174545 | 63 | 262 | 15.0 | 26.0 | 0.00 | 0.05 | 0.04 | 53 | 1004.9 |
| 20260504173045 | 62 | 257 | 16.0 | 26.0 | 0.00 | 0.05 | 0.04 | 54 | 1005.0 |
| 20260504171540 | 62 | 234 | 13.0 | 24.0 | 0.00 | 0.05 | 0.04 | 53 | 1005.2 |
| 20260504081540 | 49 | 181 | 10.0 | 17.0 | 0.00 | 0.03 | 0.02 | 78 | 1005.8 |
| 20260504050014 | 47 | 221 | 5.0 | 11.0 | 0.01 | 0.02 | 0.01 | 88 | 1007.5 |
| 20260504044510 | 47 | 238 | 6.0 | 16.0 | 0.01 | 0.01 | 0.00 | 87 | 1007.8 |
| 20260504043008 | 47 | 239 | 10.0 | 18.0 | 0.01 | 0.01 | 0.00 | 88 | 1007.9 |
| 20260504041509 | 47 | 243 | 9.0 | 17.0 | 0.01 | 0.01 | 0.00 | 89 | 1008.2 |
| 20260504040002 | 47 | 243 | 6.0 | 11.0 | 0.01 | 0.01 | 0.01 | 88 | 1008.2 |
| 20260504034501 | 47 | 249 | 3.0 | 9.0 | 0.00 | 0.00 | 0.00 | 86 | 1008.2 |
| 20260504033100 | 47 | 254 | 6.0 | 11.0 | 0.00 | 0.00 | 0.00 | 85 | 1008.2 |
| 20260504031558 | 47 | 252 | 5.0 | 12.0 | 0.00 | 0.00 | 0.00 | 84 | 1008.3 |
| 20260504030057 | 47 | 233 | 7.0 | 15.0 | 0.00 | 0.00 | 0.00 | 83 | 1008.4 |
| 20260504024615 | 47 | 200 | 10.0 | 16.0 | 0.00 | 0.00 | 0.00 | 81 | 1008.5 |
| 20260504023056 | 47 | 248 | 8.0 | 17.0 | 0.00 | 0.00 | 0.00 | 79 | 1008.4 |
| 20260504021555 | 46 | 233 | 10.0 | 17.0 | 0.00 | 0.00 | 0.00 | 77 | 1008.6 |
| 20260504020056 | 46 | 190 | 7.0 | 15.0 | 0.00 | 0.00 | 0.00 | 78 | 1008.6 |
| 20260504014604 | 45 | 179 | 6.0 | 11.0 | 0.00 | 0.00 | 0.00 | 77 | 1008.6 |
| 20260504013056 | 45 | 208 | 4.0 | 8.0 | 0.00 | 0.00 | 0.00 | 76 | 1008.6 |
| 20260504011552 | 45 | 204 | 3.0 | 7.0 | 0.00 | 0.00 | 0.00 | 72 | 1008.7 |
| 20260504010055 | 45 | 204 | 3.0 | 6.0 | 0.00 | 0.00 | 0.00 | 71 | 1008.6 |
| 20260504004551 | 46 | 184 | 3.0 | 5.0 | 0.00 | 0.00 | 0.00 | 70 | 1008.6 |
| 20260504003054 | 47 | 211 | 6.0 | 11.0 | 0.00 | 0.00 | 0.00 | 62 | 1008.9 |
| 20260504001550 | 48 | 217 | 7.0 | 12.0 | 0.00 | 0.00 | 0.00 | 58 | 1008.6 |
| 20260504000116 | 48 | 225 | 8.0 | 13.0 | 0.00 | 0.00 | 0.00 | 56 | 1008.5 |